KD7MPG-3 Weather Reports


Display with metric or nautical units.
time (UTC)temp
F
wind
direction
speed
MPH
gust
MPH
rain 1hr
in
rain 24hr
in
rain mn
in
humidity
%
barometer
mb
20260903151308 55 139 1.0 10.0 0.00 0.68 0.17 91 1018.5
20260903150808 55 146 2.0 10.0 0.00 0.68 0.17 91 1018.5
20260903150310 55 137 3.0 8.0 0.00 0.68 0.17 91 1018.4
20260903145806 55 130 2.0 7.0 0.01 0.68 0.17 91 1018.5
20260903145306 55 132 2.0 7.0 0.02 0.68 0.17 91 1018.4
20260903144804 55 157 2.0 7.0 0.03 0.68 0.17 91 1018.4
20260903144304 55 171 2.0 7.0 0.05 0.68 0.17 91 1018.4
20260903144035 55 99 2.0 8.0 0.06 0.68 0.17 92 1018.3
20260903143304 55 146 2.0 8.0 0.06 0.68 0.17 92 1018.4
20260903142803 55 119 2.0 8.0 0.07 0.68 0.17 92 1018.3
20260903142531 55 102 2.0 8.0 0.09 0.68 0.17 92 1018.2
20260903141801 55 134 1.0 6.0 0.13 0.68 0.17 91 1018.3
20260903141302 55 145 2.0 6.0 0.15 0.68 0.17 91 1018.4
20260903140800 55 154 2.0 9.0 0.16 0.68 0.17 91 1018.3
20260903140258 55 172 2.0 9.0 0.16 0.68 0.17 91 1018.4
20260903135759 55 155 3.0 10.0 0.15 0.67 0.16 91 1018.4
20260903135252 55 148 4.0 11.0 0.15 0.66 0.15 91 1018.3
20260903134752 55 111 3.0 11.0 0.14 0.65 0.14 91 1018.5
20260903134252 55 125 2.0 9.0 0.12 0.63 0.12 91 1018.5
20260903133752 55 198 2.0 10.0 0.11 0.62 0.11 91 1018.5
20260903133252 55 152 3.0 11.0 0.11 0.62 0.11 91 1018.4
20260903132752 55 194 4.0 11.0 0.10 0.61 0.10 90 1018.4
20260903132247 55 97 3.0 9.0 0.08 0.59 0.08 90 1018.4
20260903131746 55 149 2.0 7.0 0.04 0.55 0.04 90 1018.3
20260903131246 55 151 2.0 8.0 0.02 0.53 0.03 90 1018.2
20260903130746 55 178 2.0 8.0 0.01 0.52 0.02 90 1018.3
20260903130246 56 159 2.0 8.0 0.01 0.52 0.01 90 1018.1
20260903125747 56 191 3.0 8.0 0.01 0.52 0.01 90 1018.1
20260903125242 56 181 2.0 8.0 0.00 0.51 0.00 90 1018.0
20260903124742 55 217 2.0 7.0 0.00 0.51 0.00 90 1017.9
20260903124243 55 148 3.0 9.0 0.00 0.51 0.00 90 1018.1
20260903123742 55 149 2.0 9.0 0.00 0.51 0.00 90 1018.1
20260903123240 55 146 2.0 7.0 0.00 0.51 0.00 90 1018.0
20260903122740 55 144 3.0 8.0 0.00 0.51 0.00 90 1018.1
20260903122235 55 159 3.0 14.0 0.00 0.51 0.00 90 1018.1
20260903121734 55 148 3.0 14.0 0.00 0.51 0.00 90 1018.2
20260903121234 55 155 4.0 10.0 0.00 0.51 0.00 90 1018.2
20260903120734 55 128 3.0 9.0 0.00 0.51 0.00 90 1018.2
20260903120234 55 185 3.0 9.0 0.00 0.51 0.00 90 1018.2
20260903115735 55 155 4.0 12.0 0.00 0.51 0.00 90 1018.2
20260903115229 55 126 4.0 12.0 0.00 0.51 0.00 90 1018.3
20260903114727 55 169 4.0 14.0 0.00 0.51 0.00 90 1018.3
20260903114228 55 136 4.0 14.0 0.00 0.51 0.00 90 1018.2
20260903113728 55 171 3.0 10.0 0.00 0.51 0.00 90 1018.3
20260903113228 55 169 3.0 10.0 0.00 0.51 0.00 90 1018.3
20260903112730 55 140 3.0 10.0 0.00 0.51 0.00 90 1018.3
20260903112223 55 130 3.0 8.0 0.00 0.51 0.00 89 1018.2
20260903111722 55 109 2.0 8.0 0.00 0.51 0.00 90 1018.2
20260903111222 55 115 2.0 7.0 0.00 0.51 0.00 90 1018.2
20260903110722 55 146 2.0 8.0 0.00 0.51 0.00 89 1018.3
20260903110222 55 156 2.0 8.0 0.00 0.51 0.00 89 1018.4
20260903105723 56 153 2.0 8.0 0.00 0.51 0.00 89 1018.4
20260903105218 56 186 2.0 9.0 0.00 0.51 0.00 89 1018.4
20260903104716 56 146 3.0 10.0 0.00 0.51 0.00 89 1018.5
20260903104216 56 173 2.0 10.0 0.00 0.51 0.00 89 1018.4
20260903103722 56 167 2.0 6.0 0.00 0.51 0.00 89 1018.5
20260903103215 56 149 2.0 9.0 0.00 0.51 0.00 89 1018.7
20260903102717 56 148 3.0 9.0 0.00 0.51 0.00 89 1018.7
20260903102214 56 138 3.0 9.0 0.00 0.51 0.00 89 1018.7
20260903101714 56 141 3.0 10.0 0.00 0.51 0.00 89 1018.5
20260903101215 55 167 3.0 10.0 0.00 0.51 0.00 89 1018.7
20260903100712 55 155 3.0 10.0 0.00 0.51 0.00 90 1018.7
20260903100210 55 163 3.0 10.0 0.00 0.51 0.00 90 1018.8
20260903095710 55 118 3.0 11.0 0.00 0.51 0.00 90 1018.5
20260903095206 55 209 3.0 11.0 0.00 0.51 0.00 90 1018.5
20260903094705 55 157 2.0 8.0 0.00 0.51 0.00 90 1018.5
20260903094207 55 148 2.0 9.0 0.00 0.51 0.00 90 1018.7
20260903093706 55 159 3.0 9.0 0.00 0.51 0.00 90 1018.7
20260903093204 56 147 2.0 9.0 0.00 0.51 0.00 90 1018.8
20260903092704 56 98 2.0 12.0 0.00 0.51 0.00 90 1018.7
20260903092201 56 153 3.0 12.0 0.00 0.51 0.00 90 1018.7
20260903091700 56 135 2.0 8.0 0.00 0.51 0.00 90 1018.7
20260903091158 56 163 2.0 8.0 0.00 0.51 0.00 90 1018.9
20260903090657 56 141 2.0 7.0 0.00 0.51 0.00 90 1019.0
20260903090157 56 157 2.0 8.0 0.00 0.51 0.00 90 1019.0
20260903085657 56 175 2.0 8.0 0.00 0.51 0.00 90 1019.1
20260903085153 56 157 2.0 7.0 0.00 0.51 0.00 90 1019.0
20260903084652 55 153 2.0 9.0 0.00 0.51 0.00 90 1019.1
20260903084150 55 155 2.0 9.0 0.00 0.51 0.00 90 1019.1
20260903083649 55 149 3.0 11.0 0.00 0.51 0.00 90 1019.0
20260903083149 55 122 4.0 11.0 0.00 0.51 0.00 90 1019.0
20260903082651 55 123 3.0 9.0 0.00 0.51 0.00 90 1019.0
20260903082146 56 136 2.0 9.0 0.00 0.51 0.00 90 1019.0
20260903081646 55 149 2.0 9.0 0.00 0.51 0.00 90 1019.1
20260903081145 55 155 3.0 9.0 0.00 0.51 0.00 90 1019.0
20260903080645 56 151 3.0 8.0 0.00 0.51 0.00 90 1019.0
20260903080145 55 153 2.0 8.0 0.00 0.51 0.00 90 1018.9
20260903075645 55 178 2.0 6.0 0.00 0.51 0.00 90 1018.9
20260903075146 55 153 2.0 6.0 0.00 0.51 0.00 90 1018.9
20260903074644 55 142 2.0 6.0 0.00 0.51 0.00 90 1018.9
20260903074144 55 144 3.0 6.0 0.00 0.51 0.00 90 1019.0
20260903073644 55 159 3.0 9.0 0.00 0.51 0.00 90 1018.9
20260903073143 55 114 3.0 9.0 0.00 0.51 0.00 90 1018.9
20260903072645 56 157 2.0 8.0 0.00 0.51 0.00 90 1018.9
20260903072144 56 165 2.0 7.0 0.00 0.51 0.00 90 1018.8
20260903071645 56 173 2.0 10.0 0.00 0.51 0.00 90 1018.9
20260903071138 56 163 2.0 10.0 0.00 0.51 0.00 90 1018.8
20260903070637 56 173 3.0 7.0 0.00 0.51 0.00 90 1018.7
20260903070138 56 123 3.0 10.0 0.00 0.51 0.00 90 1018.9
20260903065638 56 123 3.0 10.0 0.00 0.51 0.51 90 1018.8
20260903065138 56 188 3.0 9.0 0.00 0.51 0.51 91 1018.9
20260903064638 56 108 3.0 8.0 0.00 0.51 0.51 91 1018.9
20260903064136 56 153 2.0 8.0 0.00 0.51 0.51 90 1018.9
20260903063637 56 148 2.0 8.0 0.00 0.51 0.51 90 1019.0
20260903063136 56 147 2.0 8.0 0.00 0.51 0.51 90 1019.0
20260903062636 56 146 2.0 8.0 0.00 0.51 0.51 90 1018.8
20260903062136 56 152 2.0 8.0 0.00 0.51 0.51 90 1018.9
20260903061635 56 119 2.0 8.0 0.00 0.51 0.51 90 1019.0
20260903061142 56 147 2.0 6.0 0.00 0.51 0.51 90 1019.1
20260903060634 56 180 2.0 7.0 0.00 0.51 0.51 90 1019.0
20260903060133 57 161 2.0 8.0 0.00 0.51 0.51 90 1019.1
20260903055634 57 153 2.0 8.0 0.00 0.51 0.51 90 1019.0
20260903055135 57 177 2.0 7.0 0.00 0.51 0.51 90 1019.0
20260903054635 57 134 1.0 6.0 0.00 0.51 0.51 90 1019.0
20260903054131 57 171 2.0 7.0 0.00 0.51 0.51 90 1019.1
20260903053632 57 157 2.0 7.0 0.00 0.51 0.51 90 1019.1
20260903053127 57 164 2.0 5.0 0.00 0.51 0.51 90 1019.1
20260903052625 57 148 1.0 5.0 0.00 0.51 0.51 91 1019.1
20260903052124 57 152 2.0 6.0 0.00 0.51 0.51 91 1019.1
20260903051625 56 194 2.0 6.0 0.00 0.51 0.51 91 1019.0
20260903051124 56 146 2.0 6.0 0.00 0.51 0.51 91 1019.0
20260903050626 56 187 1.0 6.0 0.00 0.51 0.51 91 1018.9
20260903050121 56 134 2.0 8.0 0.00 0.51 0.51 91 1018.9
20260903045623 56 173 3.0 8.0 0.00 0.51 0.51 91 1018.9
20260903045121 56 138 2.0 7.0 0.00 0.51 0.51 91 1018.9
20260903044621 56 131 1.0 7.0 0.00 0.51 0.51 91 1018.7
20260903044123 56 126 1.0 5.0 0.00 0.51 0.51 91 1018.5
20260903043622 56 185 1.0 5.0 0.00 0.51 0.51 91 1018.4
20260903043123 56 157 3.0 8.0 0.00 0.51 0.51 91 1018.3
20260903042618 56 146 3.0 8.0 0.00 0.51 0.51 91 1018.3
20260903042118 56 158 3.0 10.0 0.00 0.51 0.51 91 1018.4
20260903041614 56 146 3.0 10.0 0.00 0.51 0.51 91 1018.3
20260903041106 56 161 3.0 10.0 0.00 0.51 0.51 90 1018.3
20260903040600 56 159 3.0 10.0 0.00 0.51 0.51 90 1018.3
20260903040059 56 188 4.0 10.0 0.00 0.51 0.51 90 1018.3
20260903035600 57 150 3.0 8.0 0.00 0.51 0.51 90 1018.3
20260903035100 57 148 2.0 8.0 0.00 0.51 0.51 90 1018.2
20260903034600 57 124 3.0 7.0 0.00 0.51 0.51 90 1018.1
20260903034100 57 144 3.0 8.0 0.00 0.51 0.51 90 1017.9
20260903033600 57 154 3.0 9.0 0.00 0.51 0.51 89 1017.9
20260903033056 57 127 3.0 9.0 0.00 0.51 0.51 90 1017.9
20260903032555 57 159 2.0 7.0 0.00 0.51 0.51 89 1018.0
20260903032056 57 173 2.0 7.0 0.00 0.51 0.51 89 1018.0
20260903031556 57 153 3.0 7.0 0.00 0.51 0.51 89 1017.9
20260903031055 58 176 3.0 7.0 0.00 0.51 0.51 89 1017.8
20260903030558 58 194 2.0 7.0 0.00 0.51 0.51 89 1017.7
20260903030051 58 174 2.0 6.0 0.00 0.51 0.51 89 1017.6
20260903025551 58 175 2.0 6.0 0.00 0.51 0.51 89 1017.4
20260903025052 58 182 2.0 6.0 0.00 0.51 0.51 89 1017.3
20260903024552 58 175 1.0 6.0 0.00 0.51 0.51 89 1017.4
20260903024051 58 155 2.0 7.0 0.00 0.51 0.51 89 1017.4
20260903023553 58 159 2.0 7.0 0.00 0.51 0.51 89 1017.4
20260903023047 58 124 2.0 8.0 0.01 0.51 0.51 90 1017.4
20260903022547 59 166 2.0 8.0 0.01 0.51 0.51 90 1017.5
20260903022047 59 150 2.0 6.0 0.01 0.51 0.51 90 1017.5
20260903021547 59 215 2.0 7.0 0.01 0.51 0.51 90 1017.4
20260903021047 59 153 2.0 7.0 0.01 0.51 0.51 90 1017.3
20260903020547 59 104 2.0 5.0 0.01 0.51 0.51 90 1017.2
20260903020045 59 161 2.0 7.0 0.01 0.51 0.51 90 1017.2
20260903015545 59 188 3.0 7.0 0.01 0.51 0.51 90 1017.2
20260903015045 59 171 3.0 6.0 0.01 0.51 0.51 90 1017.1
20260903014545 59 157 2.0 6.0 0.02 0.51 0.51 90 1017.1
20260903014045 59 175 2.0 6.0 0.03 0.51 0.51 90 1017.0
20260903013545 59 162 2.0 6.0 0.04 0.51 0.51 90 1016.9
20260903013046 59 157 2.0 6.0 0.03 0.50 0.50 89 1016.9
20260903012543 59 221 2.0 5.0 0.03 0.50 0.50 89 1017.1
20260903012041 59 192 2.0 7.0 0.03 0.50 0.50 89 1016.9
20260903011542 59 155 2.0 7.0 0.03 0.50 0.50 89 1016.9
20260903011041 60 185 2.0 7.0 0.03 0.50 0.50 89 1016.8
20260903010539 60 202 2.0 6.0 0.03 0.50 0.50 89 1016.9
20260903010039 60 157 2.0 6.0 0.03 0.50 0.50 89 1016.7
20260903005535 60 217 2.0 6.0 0.03 0.50 0.50 89 1016.6
20260903005035 60 182 2.0 5.0 0.03 0.50 0.50 89 1016.6
20260903004536 60 153 1.0 7.0 0.02 0.49 0.49 89 1016.7
20260903004035 60 241 1.0 7.0 0.01 0.48 0.48 89 1016.7
20260903003533 61 161 1.0 4.0 0.00 0.47 0.47 90 1016.7
20260903003033 61 159 1.0 6.0 0.00 0.47 0.47 90 1016.5
20260903002527 61 159 1.0 6.0 0.00 0.47 0.47 90 1016.6
20260903002026 61 186 1.0 5.0 0.00 0.47 0.47 90 1016.7
20260903001523 61 159 2.0 5.0 0.01 0.47 0.47 90 1016.5
20260903001021 61 150 1.0 5.0 0.08 0.47 0.47 90 1016.4
20260903000521 61 111 1.0 5.0 0.09 0.47 0.47 91 1016.4
20260903000015 60 154 1.0 5.0 0.10 0.47 0.47 91 1016.3
20260902235515 60 186 1.0 4.0 0.10 0.47 0.47 91 1016.4
20260902235015 60 146 1.0 4.0 0.11 0.47 0.47 91 1016.3
20260902234516 60 169 1.0 4.0 0.12 0.47 0.47 91 1016.2
20260902234015 60 179 1.0 4.0 0.13 0.47 0.47 91 1016.2
20260902233516 59 184 1.0 5.0 0.13 0.47 0.47 91 1016.2
20260902233014 59 168 2.0 5.0 0.14 0.47 0.47 91 1016.2
20260902232511 59 165 1.0 8.0 0.14 0.47 0.47 91 1016.1
20260902232012 59 150 2.0 8.0 0.14 0.47 0.47 91 1016.1
20260902231511 59 186 3.0 9.0 0.13 0.45 0.45 91 1016.1
20260902231009 59 253 3.0 9.0 0.07 0.39 0.40 91 1016.1
20260902230510 59 219 4.0 11.0 0.06 0.38 0.38 91 1016.0
20260902230003 59 141 4.0 11.0 0.05 0.37 0.37 90 1015.9
20260902225503 59 169 4.0 10.0 0.05 0.37 0.37 90 1015.7
20260902225003 60 171 4.0 10.0 0.04 0.36 0.36 90 1015.7
20260902224503 60 151 4.0 10.0 0.04 0.35 0.35 90 1015.6
20260902224003 60 201 3.0 9.0 0.03 0.34 0.34 90 1015.6
20260902223504 60 187 3.0 7.0 0.03 0.34 0.34 90 1015.5
20260902223001 60 141 3.0 10.0 0.02 0.33 0.33 90 1015.5
20260902222459 60 174 4.0 10.0 0.02 0.33 0.33 90 1015.4
20260902222000 60 215 4.0 14.0 0.03 0.33 0.33 90 1015.5
20260902221459 60 221 4.0 14.0 0.02 0.32 0.32 90 1015.4
20260902220956 60 151 4.0 13.0 0.02 0.32 0.32 90 1015.5
20260902220458 60 184 4.0 13.0 0.02 0.32 0.32 90 1015.5
20260902215951 60 176 4.0 14.0 0.02 0.32 0.32 90 1015.4
20260902215451 60 166 4.0 14.0 0.03 0.32 0.32 89 1015.5
20260902214951 60 134 5.0 14.0 0.03 0.32 0.32 89 1015.4
20260902214451 60 170 5.0 13.0 0.02 0.31 0.31 89 1015.3
20260902213951 60 171 4.0 11.0 0.02 0.31 0.31 89 1015.4
20260902213451 60 148 5.0 12.0 0.02 0.31 0.31 89 1015.4
20260902212946 60 148 5.0 13.0 0.02 0.31 0.31 89 1015.3
20260902212445 60 110 5.0 14.0 0.02 0.31 0.31 89 1015.2
20260902211945 60 192 5.0 14.0 0.01 0.30 0.30 89 1015.3
20260902211448 60 160 5.0 14.0 0.01 0.30 0.30 89 1015.3
20260902210944 60 157 5.0 14.0 0.01 0.30 0.30 88 1015.4
20260902210446 60 146 5.0 14.0 0.01 0.30 0.30 89 1015.3
20260902205940 60 219 5.0 16.0 0.01 0.30 0.30 89 1015.4
20260902205439 60 176 4.0 16.0 0.00 0.29 0.29 88 1015.3
20260902204939 60 186 4.0 14.0 0.00 0.29 0.29 88 1015.2
20260902204443 60 190 3.0 13.0 0.01 0.29 0.29 88 1015.1
20260902203939 60 179 3.0 13.0 0.01 0.29 0.29 88 1015.2
20260902203440 60 208 3.0 9.0 0.01 0.29 0.29 88 1015.0
20260902202936 60 197 4.0 9.0 0.01 0.29 0.29 89 1015.0
20260902202435 60 145 4.0 12.0 0.02 0.29 0.29 89 1014.8
20260902201934 60 151 4.0 12.0 0.02 0.29 0.29 89 1014.8
20260902201433 60 151 4.0 9.0 0.03 0.29 0.29 89 1014.6
20260902200931 60 185 3.0 9.0 0.03 0.29 0.29 89 1014.7
20260902200432 60 163 3.0 10.0 0.04 0.29 0.29 90 1014.7
20260902195928 60 221 4.0 10.0 0.04 0.29 0.29 90 1014.7
20260902195428 60 157 4.0 10.0 0.05 0.29 0.29 90 1014.6
20260902194928 60 139 4.0 11.0 0.06 0.29 0.29 90 1014.5
20260902194428 60 168 3.0 11.0 0.06 0.28 0.29 90 1014.6
20260902193930 59 140 3.0 10.0 0.07 0.28 0.28 90 1014.5
20260902193429 59 162 3.0 14.0 0.08 0.28 0.28 90 1014.6
20260902192929 59 207 3.0 14.0 0.10 0.28 0.28 90 1014.6
20260902192426 59 148 4.0 14.0 0.10 0.27 0.27 90 1014.6
20260902191928 59 151 3.0 14.0 0.13 0.27 0.27 90 1014.7
20260902191427 59 155 3.0 12.0 0.14 0.26 0.26 90 1014.6
20260902190926 59 144 3.0 11.0 0.15 0.26 0.26 90 1014.7
20260902190426 59 124 2.0 10.0 0.16 0.25 0.26 90 1014.7
20260902185924 59 125 3.0 10.0 0.17 0.25 0.25 90 1014.6
20260902185425 59 110 3.0 10.0 0.16 0.24 0.24 90 1014.7
20260902184920 59 93 2.0 6.0 0.15 0.23 0.23 90 1014.8
20260902184420 59 132 2.0 9.0 0.14 0.22 0.22 90 1014.9
20260902183919 59 98 2.0 9.0 0.13 0.21 0.21 90 1014.8
20260902183418 59 117 2.0 6.0 0.12 0.20 0.20 90 1014.9
20260902182916 59 175 3.0 10.0 0.11 0.18 0.18 89 1015.1
20260902182418 59 79 3.0 10.0 0.10 0.17 0.17 89 1015.3
20260902181912 59 136 3.0 8.0 0.08 0.15 0.14 89 1015.1
20260902181406 59 132 2.0 7.0 0.07 0.13 0.12 89 1015.2
20260902180900 59 142 3.0 9.0 0.07 0.12 0.11 89 1015.0
20260902180354 59 147 3.0 9.0 0.06 0.10 0.09 89 1015.1
20260902175850 59 117 3.0 11.0 0.05 0.09 0.09 89 1015.3
20260902175350 59 171 3.0 11.0 0.06 0.09 0.08 89 1015.2
20260902174851 59 110 3.0 10.0 0.07 0.09 0.08 89 1015.2
20260902174350 59 152 3.0 7.0 0.07 0.09 0.08 89 1015.4
20260902173851 59 122 2.0 7.0 0.07 0.09 0.08 89 1015.4
20260902173351 59 162 2.0 7.0 0.08 0.09 0.08 89 1015.4
20260902172847 59 157 2.0 7.0 0.07 0.08 0.07 89 1015.5
20260902172346 59 146 2.0 7.0 0.07 0.08 0.07 89 1015.6
20260902171848 59 174 2.0 7.0 0.06 0.07 0.06 88 1015.7
20260902171346 59 194 2.0 6.0 0.05 0.06 0.05 88 1015.7
20260902170846 60 149 2.0 11.0 0.04 0.05 0.04 88 1015.7
20260902170347 60 207 3.0 11.0 0.03 0.04 0.04 87 1015.8
20260902165842 60 173 2.0 9.0 0.03 0.04 0.03 87 1015.6
20260902165342 60 237 2.0 9.0 0.02 0.03 0.02 86 1015.6
20260902164844 61 179 2.0 7.0 0.01 0.02 0.01 86 1015.5
20260902164648 62 211 2.0 8.0 0.01 0.02 0.01 84 1015.4
20260902164613 61 179 3.0 8.0 0.01 0.02 0.01 85 1015.4
20260902163449 62 180 1.0 4.0 0.00 0.01 0.00 83 1015.1
20260902163400 62 240 2.0 4.0 0.00 0.01 0.00 83 1015.3
20260902163344 62 190 2.0 5.0 0.00 0.01 0.00 84 1015.3
20260902163247 62 203 0.0 3.0 0.00 0.01 0.00 83 1015.1